MICROSAT-R (43947 NORAD) Tracking and Keplerian Element Data

This shows tracking and keplerian element data for the satellite.

Feedback or suggestion? Click here.




ElementValue
Catalog43947
NameMICROSAT-R
Epoch Orbit436
Epoch Day52.06787031
Epoch Year2019
RAAN325.7671
Inclination96.6145
Eccentricity0.0049358
Argument of Perigee268.0452
Mean Anonmoly216.2762
Mean Motion16.01648352
Decay Rate0.00251966
L11 43947U 19006A 19052.06787031 .00251966 28613-4 39178-3 0 9996
L22 43947 96.6145 325.7671 0049358 268.0452 216.2762 16.01648352 4362

Live tracking and technical data element details for MICROSAT-R (NORAD 43947). MICROSAT-R can be tracked NOW for your location showing map with azimuth and elevation plus other details from your city location.

Track the satellite on the map from your city or location and see movement details for azimuth, elevation, latitude, longitude, range, height, and movement on the map or in text.







IsCatalogInMostPopularTable: catalog: 43947, numindb: 12
Update: records affected: 1



GetName: 43947 MICROSAT-R

Hit Count: updated at: Thu, 21 Feb 2019 11:22:00 GMT